• In Belarus
  • List of Countries
  • For 7 days
  • Water Temperature
  • Satellite Maps
  • Weather Map
  • Weather Widgets
  • user-avatar
    Login

    Hourly Weather Kabul

    Today, 22 February, Thursday

    Time Temperature Precipitation Wind Pressure Humidity
    00:00 +4°C° 0 mm 2 mps 607 mmHg 50%
    01:00 +4°C° 0 mm 2 mps 607 mmHg 50%
    02:00 +4°C° 0 mm 2 mps 606 mmHg 49%
    03:00 +3°C° 0 mm 2 mps 606 mmHg 48%
    04:00 +4°C° 0 mm 1 mps 606 mmHg 47%
    05:00 +4°C° 0 mm 1 mps 606 mmHg 46%
    06:00 +5°C° 0 mm 1 mps 606 mmHg 45%
    07:00 +5°C° 0 mm 1 mps 606 mmHg 44%
    08:00 +5°C° 0 mm 1 mps 606 mmHg 43%
    09:00 +6°C° 0 mm 1 mps 606 mmHg 39%
    10:00 +8°C° 0 mm 1 mps 607 mmHg 36%
    11:00 +9°C° 0 mm 1 mps 607 mmHg 33%
    12:00 +10°C° 0 mm 1 mps 607 mmHg 32%
    13:00 +10°C° 0 mm 1 mps 607 mmHg 31%
    14:00 +11°C° 0 mm 1 mps 607 mmHg 29%
    15:00 +11°C° 0 mm 1 mps 606 mmHg 30%
    16:00 +11°C° 0 mm 1 mps 606 mmHg 30%
    17:00 +10°C° 0 mm 1 mps 606 mmHg 31%
    18:00 +9°C° 0 mm 1 mps 606 mmHg 33%
    19:00 +8°C° 0 mm 1 mps 606 mmHg 36%
    20:00 +7°C° 0 mm 1 mps 606 mmHg 38%
    21:00 +7°C° 0 mm 1 mps 607 mmHg 39%
    22:00 +6°C° 0 mm 1 mps 607 mmHg 40%
    23:00 +6°C° 0 mm 1 mps 607 mmHg 40%

    Tomorrow, 23 February, Friday

    Time Temperature Precipitation Wind Pressure Humidity
    00:00 +5°C° 0 mm 1 mps 606 mmHg 40%
    01:00 +5°C° 0 mm 1 mps 606 mmHg 40%
    02:00 +5°C° 0 mm 1 mps 606 mmHg 41%
    03:00 +4°C° 0 mm 1 mps 606 mmHg 41%
    04:00 +4°C° 0 mm 1 mps 605 mmHg 41%
    05:00 +4°C° 0 mm 1 mps 605 mmHg 42%
    06:00 +4°C° 0 mm 1 mps 605 mmHg 41%
    07:00 +5°C° 0 mm 1 mps 605 mmHg 41%
    08:00 +5°C° 0 mm 1 mps 606 mmHg 41%
    09:00 +6°C° 0 mm 1 mps 606 mmHg 38%
    10:00 +8°C° 0 mm 1 mps 606 mmHg 36%
    11:00 +9°C° 0 mm 1 mps 607 mmHg 33%
    12:00 +9°C° 0 mm 1 mps 606 mmHg 33%
    13:00 +9°C° 0 mm 2 mps 606 mmHg 34%
    14:00 +9°C° 0 mm 2 mps 606 mmHg 34%
    15:00 +9°C° 0.1 mm 2 mps 605 mmHg 37%
    16:00 +8°C° 0.1 mm 2 mps 605 mmHg 40%
    17:00 +8°C° 0.1 mm 2 mps 605 mmHg 43%
    18:00 +7°C° 0.2 mm 2 mps 605 mmHg 47%
    19:00 +5°C° 0.2 mm 3 mps 605 mmHg 50%
    20:00 +4°C° 0.2 mm 3 mps 605 mmHg 53%
    21:00 +4°C° 0.6 mm 3 mps 605 mmHg 58%
    22:00 +3°C° 0.6 mm 3 mps 605 mmHg 64%
    23:00 +2°C° 0.6 mm 3 mps 605 mmHg 69%

    Day after tomorrow, 24 February, Saturday

    Time Temperature Precipitation Wind Pressure Humidity
    00:00 +2°C° 0.4 mm 3 mps 604 mmHg 72%
    01:00 +2°C° 0.4 mm 3 mps 604 mmHg 75%
    02:00 +1°C° 0.4 mm 3 mps 604 mmHg 79%
    03:00 +1°C° 0.5 mm 3 mps 604 mmHg 80%
    04:00 +2°C° 0.5 mm 2 mps 604 mmHg 82%
    05:00 +1°C° 0.5 mm 2 mps 603 mmHg 84%
    06:00 +1°C° 0.2 mm 2 mps 604 mmHg 83%
    07:00 +1°C° 0.2 mm 2 mps 604 mmHg 83%
    08:00 +1°C° 0.2 mm 2 mps 605 mmHg 83%
    09:00 +2°C° 0.2 mm 2 mps 605 mmHg 80%
    10:00 +3°C° 0.2 mm 2 mps 605 mmHg 78%
    11:00 +3°C° 0.2 mm 2 mps 605 mmHg 75%
    12:00 +4°C° 0.1 mm 2 mps 605 mmHg 73%
    13:00 +5°C° 0.1 mm 2 mps 605 mmHg 71%
    14:00 +5°C° 0.1 mm 2 mps 605 mmHg 69%
    15:00 +5°C° 0.1 mm 2 mps 605 mmHg 69%
    16:00 +5°C° 0.1 mm 2 mps 605 mmHg 68%
    17:00 +6°C° 0.1 mm 2 mps 605 mmHg 68%
    18:00 +6°C° 0 mm 1 mps 605 mmHg 69%
    19:00 +6°C° 0 mm 1 mps 606 mmHg 71%
    20:00 +5°C° 0 mm 1 mps 606 mmHg 73%
    21:00 +5°C° 0 mm 1 mps 606 mmHg 74%
    22:00 +5°C° 0 mm 1 mps 607 mmHg 74%
    23:00 +4°C° 0 mm 1 mps 607 mmHg 75%

    25 February, Sunday

    Time Temperature Precipitation Wind Pressure Humidity
    00:00 +4°C° 0 mm 1 mps 607 mmHg 74%
    01:00 +4°C° 0 mm 1 mps 607 mmHg 74%
    02:00 +3°C° 0 mm 1 mps 607 mmHg 74%
    03:00 +3°C° 0 mm 1 mps 607 mmHg 73%
    04:00 +3°C° 0 mm 1 mps 607 mmHg 72%
    05:00 +3°C° 0 mm 1 mps 607 mmHg 71%
    06:00 +4°C° 0 mm 1 mps 607 mmHg 69%
    07:00 +4°C° 0 mm 1 mps 608 mmHg 67%
    08:00 +4°C° 0 mm 1 mps 608 mmHg 65%
    09:00 +6°C° 0 mm 1 mps 609 mmHg 61%
    10:00 +7°C° 0 mm 1 mps 609 mmHg 58%
    11:00 +8°C° 0 mm 1 mps 610 mmHg 54%
    12:00 +8°C° 0.1 mm 2 mps 609 mmHg 55%
    13:00 +8°C° 0.1 mm 2 mps 609 mmHg 55%
    14:00 +8°C° 0.1 mm 2 mps 609 mmHg 55%
    15:00 +8°C° 0.4 mm 2 mps 609 mmHg 58%
    16:00 +7°C° 0.4 mm 2 mps 608 mmHg 60%
    17:00 +6°C° 0.4 mm 2 mps 608 mmHg 63%
    18:00 +6°C° 0.3 mm 2 mps 608 mmHg 65%
    19:00 +5°C° 0.3 mm 2 mps 608 mmHg 67%
    20:00 +5°C° 0.3 mm 2 mps 609 mmHg 69%
    21:00 +4°C° 0.2 mm 2 mps 608 mmHg 71%
    22:00 +4°C° 0.2 mm 2 mps 608 mmHg 73%
    23:00 +4°C° 0.2 mm 2 mps 608 mmHg 75%

    26 February, Monday

    Time Temperature Precipitation Wind Pressure Humidity
    00:00 +4°C° 0.2 mm 2 mps 608 mmHg 76%
    01:00 +4°C° 0.2 mm 2 mps 607 mmHg 77%
    02:00 +3°C° 0.2 mm 2 mps 607 mmHg 78%
    03:00 +3°C° 0.3 mm 2 mps 607 mmHg 79%
    04:00 +3°C° 0.3 mm 2 mps 606 mmHg 80%
    05:00 +3°C° 0.3 mm 2 mps 606 mmHg 82%
    06:00 +3°C° 0.3 mm 2 mps 606 mmHg 81%
    07:00 +3°C° 0.3 mm 2 mps 606 mmHg 81%
    08:00 +4°C° 0.3 mm 2 mps 607 mmHg 81%
    09:00 +4°C° 0.2 mm 2 mps 607 mmHg 79%
    10:00 +5°C° 0.2 mm 2 mps 607 mmHg 78%
    11:00 +5°C° 0.2 mm 2 mps 607 mmHg 76%
    12:00 +6°C° 0.2 mm 2 mps 606 mmHg 74%
    13:00 +6°C° 0.2 mm 2 mps 606 mmHg 73%
    14:00 +7°C° 0.2 mm 2 mps 606 mmHg 71%
    15:00 +7°C° 0.3 mm 2 mps 606 mmHg 71%
    16:00 +7°C° 0.3 mm 2 mps 606 mmHg 71%
    17:00 +7°C° 0.3 mm 2 mps 606 mmHg 70%
    18:00 +6°C° 0.4 mm 2 mps 606 mmHg 72%
    19:00 +6°C° 0.4 mm 2 mps 606 mmHg 73%
    20:00 +5°C° 0.4 mm 2 mps 606 mmHg 75%
    21:00 +5°C° 0.7 mm 2 mps 606 mmHg 76%
    22:00 +5°C° 0.7 mm 2 mps 606 mmHg 77%
    23:00 +5°C° 0.7 mm 2 mps 606 mmHg 79%

    27 February, Tuesday

    Time Temperature Precipitation Wind Pressure Humidity
    00:00 +5°C° 0.3 mm 2 mps 606 mmHg 79%
    01:00 +4°C° 0.3 mm 2 mps 606 mmHg 79%
    02:00 +5°C° 0.3 mm 1 mps 606 mmHg 79%
    03:00 +5°C° 0.1 mm 1 mps 606 mmHg 79%
    04:00 +5°C° 0.1 mm 1 mps 606 mmHg 78%
    05:00 +5°C° 0.1 mm 1 mps 606 mmHg 78%
    06:00 +5°C° 0 mm 1 mps 606 mmHg 76%
    07:00 +5°C° 0 mm 1 mps 607 mmHg 74%
    08:00 +5°C° 0 mm 1 mps 607 mmHg 73%
    09:00 +7°C° 0 mm 1 mps 608 mmHg 70%
    10:00 +8°C° 0 mm 1 mps 608 mmHg 67%
    11:00 +9°C° 0 mm 1 mps 608 mmHg 64%
    12:00 +10°C° 0 mm 1 mps 608 mmHg 61%
    13:00 +10°C° 0 mm 1 mps 608 mmHg 59%
    14:00 +11°C° 0 mm 1 mps 608 mmHg 56%
    15:00 +11°C° 0 mm 1 mps 608 mmHg 55%
    16:00 +11°C° 0 mm 1 mps 608 mmHg 55%
    17:00 +11°C° 0 mm 1 mps 608 mmHg 54%
    18:00 +10°C° 0 mm 1 mps 608 mmHg 56%
    19:00 +9°C° 0 mm 1 mps 608 mmHg 59%
    20:00 +8°C° 0 mm 1 mps 608 mmHg 62%
    21:00 +7°C° 0 mm 1 mps 608 mmHg 62%
    22:00 +7°C° 0 mm 1 mps 608 mmHg 62%
    23:00 +6°C° 0 mm 1 mps 608 mmHg 62%
    Show more